Regional Weather Roundup
Issued by NWS Cleveland, OH

Home | Current Version | Previous Version | Text Only | Print | Product List | Glossary Off
Versions: 1 2 3 4 5 6 7 8 9 10 11 12 13 14 15 16 17 18 19 20 21 22 23 24 25 26 27 28 29 30 31 32 33 34 35 36 37 38 39 40 41 42 43 44 45 46 47 48 49 50

000
ASUS41 KCLE 272210
RWRCLE
OHIO REGIONAL WEATHER ROUNDUP
NATIONAL WEATHER SERVICE CLEVELAND, OH
600 PM EDT SAT AUG 27 2016

NOTE: "FAIR" INDICATES FEW OR NO CLOUDS BELOW 12,000 FEET WITH NO
SIGNIFICANT WEATHER AND/OR OBSTRUCTIONS TO VISIBILITY.

OHZ001>008-015>018-024>027-034-035-043-044-272300-
   NORTHWEST OHIO

CITY           SKY/WX    TMP DP  RH WIND       PRES   REMARKS
DEFIANCE       CLOUDY    79  72  79 SE6       30.09R
FINDLAY        LGT RAIN  76  71  85 SE8       30.11R
TOLEDO EXPRESS CLOUDY    74  73  97 E5        30.09S
TOLEDO EXEC    CLOUDY    75  73  93 E6        30.11S
LIMA           LGT RAIN  74  73  97 CALM      30.12R
$$

OHZ009>014-019>023-028>033-038-089-272300-
   NORTHEAST OHIO

CITY           SKY/WX    TMP DP  RH WIND       PRES   REMARKS
CLE-HOPKINS    CLOUDY    79  68  69 N18       30.14R
CLE-LAKEFRONT  LGT RAIN  81  72  74 N21G28    30.10R
CUY CO. ARPT   NOT AVBL
LORAIN-ELYRIA  CLOUDY    75  68  78 NE9       30.13R
ASHTABULA      SUNNY     85  65  51 S8        30.15S
AKRON-CANTON   PTSUNNY   90  67  46 SW6       30.12F HX  93
WOOSTER        SUNNY     84  71  65 S5        30.13F
MANSFIELD      CLOUDY    86  70  58 S8        30.13R HX  90
YOUNGSTOWN     MOSUNNY   87  65  47 E3        30.15R
$$

OHZ042-051>053-060>062-070>072-077>081-272300-
  SOUTHWEST OHIO

CITY           SKY/WX    TMP DP  RH WIND       PRES   REMARKS
CINC-COVINGTON PTSUNNY   80  74  81 E8        30.10S
CINC-LUNKEN    SUNNY     77  73  88 NE5       30.10F
HAMILTON       CLOUDY    82  69  64 E6        30.10F
DAYTON         PTSUNNY   77  72  84 SE8       30.11F
WRIGHT-PAT AFB PTSUNNY   77  73  85 E5        30.10F
DAYTON GENERAL CLOUDY    79  69  71 E7        30.10F
WILMINGTON     MOSUNNY   75  69  81 NE6       30.12F
$$

OHZ036-037-039>041-045>050-054>059-063>069-073>076-082>088-272300-
  CENTRAL AND SOUTHEAST OHIO

CITY           SKY/WX    TMP DP  RH WIND       PRES   REMARKS
COLUMBUS       CLOUDY    73  69  87 NE5       30.14F
OSU AIRPORT    CLOUDY    74  69  85 NW6       30.13S
BOLTON FIELD   MOSUNNY   73  70  88 N5        30.14F
RICKENBACK AFB CLOUDY    76  69  80 N9        30.13F
NEWARK         PTSUNNY   76  69  79 W20G33    30.15R THUNDER
MARION         TSTM      74  68  81 W16       30.13S
LANCASTER      CLOUDY    76  69  79 N9G18     30.14R
ZANESVILLE     SUNNY     90  70  51 SW5       30.11S HX  95
NEW PHILLY     SUNNY     92  68  45 SE7       30.12S HX  96
$$




USA.gov is the U.S. government's official web portal to all federal, state and local government web resources and services.